Location: ??????
(56.0120°N, 39.1740°E)
Time: 05:36:56
(UTC+00:00)

Cosmos 1782 Rocket - Pass Details

Date: 14 April 2026
Orbit: 600 x 624 km, 82.5° (Epoch: 10 May)

Event Time Altitude Azimuth Distance (km) Brightness Sun altitude
Exits shadow 19:01:53 34° 108° (ESE) 1,010 4.2 -18.1°
Maximum altitude 19:02:26 35° 91° (E) 982 4.3 -18.1°
Drops below altitude 10° 19:06:21 10° 26° (NNE) 1,958 6.5 -18.5°
Sets 19:08:42 0° 18° (NNE) 2,866 7.5 -18.7°
